Wetbulb
43.12 46.13 46.90 47.16 46.03 45.79 45.84 45.64 45.76 46.22 46.08 45.12 44.19 44.00 44.03 45.51 46.20 47.06 48.44 48.78 47.57 46.87 44.01 43.38 42.47 42.46 41.04 39.99 40.99 41.57 41.72 41.99 43.48 43.91 44.88 47.22 48.54 48.01 48.32 48.92 48.89 49.85 50.09
41.78 44.25 44.54 43.49 44.24 44.53 44.78 45.23 46.25 46.04 45.94 45.03 44.46 44.62 44.35 45.04 45.65 47.25 47.49 48.62 48.47 46.84 45.43 43.32 42.58 41.86 40.88 40.51 40.38 40.66 40.69 41.59 42.64 41.57 42.26 42.26 45.48 46.85 48.04 48.31 48.93 47.32 47.86
41.21 41.55 41.79 41.38 41.78 43.18 44.01 45.28 45.90 45.93 45.81 45.26 44.90 44.16 43.76 43.60 43.91 44.43 45.10 46.81 47.57 47.94 46.21 44.58 42.38 41.36 40.86 40.18 39.95 40.47 40.60 39.83 41.50 42.36 43.02 41.07 40.29 42.82 45.34 46.21 45.15 44.85 44.46
41.01 40.72 40.58 40.52 41.18 42.84 43.71 45.05 45.82 45.93 46.23 44.78 42.91 41.57 40.94 40.96 42.54 42.87 44.24 44.75 46.18 46.87 47.10 45.51 43.16 41.53 41.24 40.30 40.45 42.88 40.56 40.42 39.40 41.31 44.05 43.65 43.96 40.17 39.70 43.78 43.64 44.16 44.08
39.89 39.94 40.15 41.97 42.00 43.06 43.06 43.66 44.89 45.71 44.92 43.43 42.65 41.45 40.76 41.14 42.01 42.12 42.42 43.36 44.77 45.70 46.77 45.38 43.26 41.73 41.40 40.71 40.66 40.81 39.92 40.48 40.26 40.08 40.57 40.57 41.31 43.42 40.89 38.14 39.98 41.81 42.61
38.57 39.13 40.72 42.52 42.13 42.07 42.58 43.01 44.41 44.18 43.38 42.49 42.42 41.63 40.17 39.93 39.80 40.25 40.52 42.25 43.53 44.58 45.46 45.29 42.91 41.83 40.99 40.38 40.79 40.97 40.20 40.62 40.97 41.37 40.96 40.47 39.65 39.79 39.33 37.37 37.10 37.41 39.87
37.35 38.77 40.38 40.92 41.57 42.02 42.50 43.51 43.56 42.25 42.17 41.71 41.58 41.19 40.46 39.54 39.38 39.71 40.18 40.64 42.12 43.10 43.79 43.84 42.18 41.30 40.91 40.83 40.66 40.35 40.47 40.56 40.55 40.77 41.23 42.05 41.63 41.73 41.03 39.14 37.30 36.58 38.09
37.14 38.02 40.31 40.90 41.18 42.37 42.53 42.95 41.73 41.24 41.29 40.97 40.84 40.54 40.34 39.90 40.15 40.40 40.53 40.79 41.68 42.84 43.67 43.06 42.34 41.96 41.45 40.71 40.08 39.72 40.15 40.37 40.27 39.58 39.67 40.78 41.53 42.18 41.60 40.26 37.80 35.28 35.60
37.57 38.13 39.56 40.60 40.82 41.68 42.51 42.45 41.45 40.98 40.76 40.76 40.01 39.28 39.27 39.43 39.43 39.61 40.58 41.37 42.08 43.71 43.05 42.15 41.53 41.47 41.00 40.44 39.52 38.54 38.42 38.67 38.68 38.74 39.02 39.19 40.22 40.99 40.27 40.36 40.18 37.95 33.47
37.90 38.16 38.97 39.67 41.18 42.20 42.40 42.10 41.63 40.87 40.52 40.12 38.99 38.87 38.46 39.12 39.14 38.58 39.24 40.34 41.13 42.07 41.84 41.67 41.35 41.04 40.53 39.92 38.73 37.78 38.22 37.86 37.93 38.77 38.30 38.01 38.90 39.18 39.28 39.43 40.32 39.87 37.66
37.88 38.62 39.40 39.91 41.56 42.02 41.76 41.63 41.06 40.62 39.71 39.43 38.61 37.66 37.57 37.97 38.01 37.63 38.01 38.61 39.21 39.51 40.27 41.05 41.02 40.51 39.99 39.58 38.25 37.52 37.55 37.04 36.92 36.93 37.00 37.33 37.68 37.26 37.47 37.89 38.08 37.77 38.02
39.14 39.47 39.71 39.79 40.76 41.53 41.52 41.32 41.18 40.54 40.19 39.81 38.52 38.08 37.45 37.13 36.65 36.58 36.88 37.23 36.98 37.91 38.59 39.17 39.83 40.31 40.18 39.57 38.45 37.54 37.81 36.88 36.43 36.58 36.13 36.25 38.54 35.95 35.98 35.48 35.53 35.91 36.25
39.53 40.08 39.30 38.94 40.31 41.17 41.50 41.37 41.21 40.75 40.72 39.63 38.31 37.75 37.04 36.29 35.80 36.04 36.39 36.71 36.52 36.49 36.66 37.66 37.79 38.20 38.71 38.58 38.33 37.90 37.44 36.78 36.37 36.19 35.75 35.83 35.61 34.72 34.77 34.64 34.08 34.43 36.63
39.48 39.73 39.37 39.37 39.50 40.61 41.00 41.22 41.54 41.29 40.79 39.71 38.54 37.66 37.00 36.41 35.79 36.08 36.12 36.11 36.24 35.75 35.52 35.98 36.89 37.33 37.33 37.62 37.56 37.61 36.90 36.10 36.09 36.43 36.58 36.55 36.25 35.42 34.96 34.96 34.35 34.89 33.54
38.93 39.29 40.06 39.72 39.70 39.65 40.40 40.92 41.02 41.42 40.59 39.38 38.52 38.05 37.83 37.01 36.16 36.00 35.85 35.80 35.67 35.70 35.52 35.38 35.81 35.63 35.95 37.08 35.62 36.10 35.27 34.66 33.97 35.10 36.39 37.20 38.43 40.61 40.13 37.24 35.10 34.37 33.38
39.23 39.93 40.19 40.35 40.36 40.51 40.33 40.81 41.05 41.02 40.49 39.11 38.90 38.85 37.96 37.06 36.15 35.84 35.51 34.92 34.74 34.47 34.57 34.30 34.20 33.87 35.93 39.91 42.42 41.08 35.28 35.01 34.50 33.57 34.00 35.32 38.50 39.19 42.77 44.12 45.08 39.32 34.58
38.29 39.15 39.55 40.15 40.29 40.15 40.74 40.11 41.09 41.37 40.53 39.66 39.42 38.93 38.23 37.16 36.36 35.89 35.18 34.51 33.86 33.22 33.05 33.29 33.58 33.63 33.75 39.18 41.28 42.74 37.52 35.09 34.10 33.60 33.38 33.79 36.68 39.02 37.25 39.50 41.84 42.01 43.53
38.45 39.20 39.23 39.18 39.41 39.75 40.68 41.30 41.15 40.45 40.00 39.69 39.51 38.97 37.83 36.85 36.23 35.10 34.34 33.77 33.14 32.70 32.45 32.71 33.19 33.06 34.50 39.38 40.94 42.18 37.24 35.47 34.33 34.14 33.72 32.93 33.40 34.58 35.73 35.38 35.13 35.72 36.31
39.85 39.40 39.57 39.42 39.56 40.11 40.47 39.53 39.06 38.53 37.86 37.93 38.09 38.53 37.62 36.51 35.74 34.14 33.47 33.10 32.45 32.11 32.17 32.88 32.71 32.08 32.89 38.03 39.74 39.88 35.63 34.29 33.71 33.86 33.42 32.90 32.91 36.41 39.21 36.27 35.36 35.00 35.31
41.10 39.55 39.73 40.02 39.65 39.84 39.65 38.78 38.51 38.16 37.84 38.21 37.65 37.75 37.77 36.15 34.58 33.71 32.77 32.76 32.79 32.32 32.42 32.32 32.04 34.24 33.15 37.46 39.41 39.44 35.51 33.25 32.96 32.84 33.04 37.27 36.31 38.83 39.87 36.75 35.20 33.59 34.29
35.82 36.42 37.83 37.73 38.14 38.54 38.22 38.05 37.67 37.12 37.96 38.01 36.95 35.88 34.83 33.51 32.86 31.77 31.51 33.16 31.09 31.40 31.15 31.51 32.00 31.86 32.78 32.91 38.80 40.04 35.66 34.19 32.83 31.57 32.42 32.82 37.59 38.91 39.48 39.78 34.80 35.14 36.36
35.68 35.87 34.64 34.40 35.16 35.31 34.66 33.60 33.51 35.58 35.38 34.99 35.01 34.00 34.05 34.42 34.53 33.05 32.91 32.33 30.96 29.96 29.85 29.68 30.28 31.31 31.28 35.41 36.89 38.95 40.06 39.13 33.75 32.20 32.74 32.83 37.56 38.83 39.45 38.70 38.89 39.10 38.80
34.31 35.15 34.56 34.79 35.44 35.08 34.34 33.67 34.61 35.26 35.32 34.55 34.34 34.74 34.85 34.50 34.53 33.14 32.61 31.94 31.77 30.61 30.13 29.63 29.57 29.87 31.12 30.52 35.98 38.10 38.92 40.11 37.60 33.70 34.98 37.57 38.13 38.51 38.21 39.01 39.06 38.83 34.11
33.14 34.39 33.93 33.52 33.43 34.18 34.11 33.83 34.41 34.55 33.67 32.16 31.86 32.49 31.44 32.63 32.31 32.08 31.88 30.69 30.13 29.93 29.54 28.46 27.77 28.91 28.95 29.79 30.42 30.55 30.13 33.73 33.22 32.97 30.38 33.26 35.50 37.05 36.32 35.75 34.54 32.58 30.97
32.51 32.67 31.91 31.49 31.81 32.70 33.10 34.37 34.55 34.16 32.42 31.88 31.31 30.25 31.31 31.34 31.65 31.85 31.06 30.73 31.49 31.32 30.01 29.67 29.22 28.76 27.42 28.74 32.65 31.81 28.94 28.46 30.38 32.54 30.06 29.10 28.42 28.19 28.69 29.24 29.82 29.64 29.12
31.62 31.60 31.33 31.14 31.81 32.25 31.92 32.27 32.54 32.10 31.25 30.62 30.95 31.03 31.38 31.47 31.60 30.59 30.17 34.84 36.01 36.67 36.96 37.32 35.95 33.14 35.50 37.38 38.07 38.28 38.63 38.96 38.09 31.96 29.19 30.12 30.27 29.93 30.18 29.63 28.89 28.67 29.77
MSLP
1016.86 1017.17 1017.42 1017.68 1017.88 1017.99 1018.13 1018.18 1018.28 1018.38 1018.53 1018.72 1018.88 1018.79 1018.68 1018.23 1017.96 1017.81 1017.72 1017.61 1017.57 1017.62 1017.74 1017.84 1017.75 1017.65 1017.74 1017.68 1017.78 1017.66 1017.26 1016.68 1016.18 1015.64 1014.81 1014.22 1013.84 1013.57 1013.60 1013.53 1013.38 1013.21 1013.01
1016.89 1017.24 1017.67 1017.77 1017.84 1017.90 1018.11 1018.28 1018.33 1018.40 1018.56 1018.83 1018.95 1018.91 1018.86 1018.47 1018.21 1017.94 1017.56 1017.40 1017.38 1017.43 1017.50 1017.61 1017.72 1017.72 1017.69 1017.63 1017.85 1017.88 1017.66 1017.28 1016.74 1016.70 1016.25 1015.63 1014.73 1014.31 1014.02 1014.03 1013.99 1014.06 1013.71
1016.64 1017.26 1017.63 1017.78 1017.85 1017.90 1018.03 1018.21 1018.24 1018.28 1018.30 1018.51 1018.64 1018.72 1018.72 1018.55 1018.40 1018.10 1017.81 1017.55 1017.30 1017.25 1017.25 1017.39 1017.56 1017.67 1017.59 1017.72 1017.95 1017.94 1017.93 1017.85 1017.28 1017.00 1016.70 1016.24 1016.11 1015.74 1014.81 1014.77 1014.52 1014.49 1014.38
1016.44 1016.94 1017.24 1017.60 1017.77 1017.67 1017.84 1017.94 1018.28 1018.38 1018.26 1018.43 1018.62 1018.83 1019.03 1019.14 1018.79 1018.51 1018.11 1017.71 1017.23 1017.03 1017.05 1017.18 1017.30 1017.47 1017.50 1017.61 1017.81 1017.76 1017.87 1017.79 1017.92 1017.32 1016.88 1016.76 1016.58 1016.34 1015.83 1015.24 1015.08 1014.91 1014.77
1015.95 1016.51 1016.85 1017.02 1017.29 1017.44 1017.70 1017.87 1018.14 1018.09 1018.27 1018.33 1018.46 1018.64 1018.76 1018.91 1018.63 1018.37 1018.07 1017.73 1017.35 1017.08 1016.91 1017.06 1017.23 1017.36 1017.40 1017.53 1017.67 1017.66 1017.76 1017.76 1017.89 1017.83 1017.55 1017.24 1016.94 1016.76 1016.82 1016.41 1015.89 1015.26 1015.00
1016.14 1016.51 1016.69 1016.94 1017.12 1017.41 1017.72 1017.87 1018.13 1017.99 1018.09 1018.17 1018.34 1018.47 1018.62 1018.67 1018.66 1018.45 1018.25 1017.82 1017.45 1017.12 1016.91 1016.92 1017.06 1017.08 1017.24 1017.33 1017.39 1017.45 1017.55 1017.62 1017.64 1017.72 1017.65 1017.61 1017.56 1017.40 1017.36 1017.28 1016.96 1016.63 1015.78
1016.23 1016.51 1016.81 1016.96 1017.21 1017.42 1017.54 1017.77 1017.96 1017.99 1018.02 1018.17 1018.22 1018.21 1018.31 1018.43 1018.52 1018.37 1018.17 1017.99 1017.67 1017.26 1016.96 1016.88 1016.97 1016.99 1016.94 1016.88 1017.02 1017.12 1017.24 1017.31 1017.37 1017.47 1017.45 1017.38 1017.36 1017.30 1017.34 1017.43 1017.36 1017.24 1016.47
1016.37 1016.47 1016.51 1016.70 1017.01 1017.16 1017.26 1017.62 1017.81 1017.93 1018.03 1018.14 1018.03 1018.02 1018.15 1018.23 1018.20 1018.11 1017.98 1017.81 1017.59 1017.28 1017.01 1016.84 1016.74 1016.72 1016.59 1016.59 1016.70 1016.84 1016.92 1016.93 1016.96 1017.02 1017.06 1017.04 1016.96 1016.95 1017.07 1017.24 1017.42 1017.51 1017.27
1015.90 1015.99 1016.00 1016.18 1016.43 1016.54 1016.66 1016.99 1017.34 1017.55 1017.67 1017.65 1017.74 1017.91 1017.97 1018.01 1018.01 1017.90 1017.76 1017.61 1017.44 1017.25 1017.02 1016.84 1016.84 1016.69 1016.47 1016.45 1016.56 1016.63 1016.67 1016.69 1016.73 1016.70 1016.77 1016.83 1016.61 1016.58 1016.63 1016.76 1017.00 1017.31 1017.67
1015.29 1015.45 1015.79 1015.84 1015.97 1015.94 1016.19 1016.64 1016.97 1017.19 1017.24 1017.33 1017.48 1017.62 1017.67 1017.61 1017.54 1017.54 1017.58 1017.55 1017.41 1017.27 1017.12 1016.94 1016.81 1016.63 1016.51 1016.49 1016.54 1016.54 1016.50 1016.53 1016.50 1016.47 1016.58 1016.60 1016.44 1016.37 1016.41 1016.52 1016.66 1016.89 1017.18
1015.43 1015.53 1015.62 1015.64 1015.63 1015.68 1016.07 1016.32 1016.71 1016.97 1017.13 1017.26 1017.36 1017.44 1017.42 1017.41 1017.45 1017.51 1017.48 1017.41 1017.24 1017.06 1016.97 1016.93 1016.87 1016.74 1016.64 1016.57 1016.61 1016.57 1016.49 1016.44 1016.34 1016.27 1016.38 1016.35 1016.23 1016.22 1016.26 1016.37 1016.51 1016.68 1016.92
1015.10 1015.13 1015.04 1015.06 1015.27 1015.55 1015.77 1015.91 1016.08 1016.31 1016.40 1016.45 1016.78 1016.95 1016.97 1017.09 1017.22 1017.21 1017.10 1017.04 1017.10 1017.09 1016.97 1016.67 1016.47 1016.32 1016.25 1016.29 1016.35 1016.35 1016.22 1016.20 1016.21 1016.16 1016.27 1016.21 1016.04 1016.11 1016.11 1016.21 1016.36 1016.38 1016.35
1014.96 1014.84 1014.85 1014.89 1014.90 1015.03 1015.16 1015.27 1015.47 1015.60 1015.70 1016.01 1016.39 1016.61 1016.75 1016.91 1016.97 1016.94 1016.93 1016.93 1016.83 1016.66 1016.47 1016.39 1016.33 1016.26 1016.22 1016.13 1016.02 1015.96 1015.91 1015.88 1015.92 1015.95 1015.99 1015.94 1015.91 1015.97 1015.94 1015.92 1016.03 1016.06 1016.02
1014.50 1014.38 1014.32 1014.08 1013.96 1014.17 1014.52 1014.68 1014.81 1014.98 1015.27 1015.65 1015.92 1016.14 1016.24 1016.27 1016.37 1016.43 1016.50 1016.54 1016.47 1016.44 1016.40 1016.33 1016.16 1015.92 1015.84 1015.78 1015.73 1015.72 1015.71 1015.70 1015.65 1015.59 1015.55 1015.51 1015.46 1015.47 1015.49 1015.55 1015.58 1015.53 1015.63
1014.01 1013.71 1013.63 1013.59 1013.53 1013.77 1013.97 1014.08 1014.21 1014.47 1014.79 1015.20 1015.44 1015.38 1015.44 1015.70 1015.91 1016.04 1016.05 1016.08 1016.15 1016.16 1016.09 1015.99 1015.86 1015.76 1015.66 1015.47 1015.40 1015.34 1015.39 1015.41 1015.35 1015.30 1015.28 1015.16 1015.02 1014.91 1014.83 1014.87 1014.96 1015.15 1015.25
1013.98 1013.51 1013.23 1013.07 1012.99 1013.02 1013.28 1013.52 1013.69 1013.86 1014.26 1014.55 1014.61 1014.73 1015.09 1015.31 1015.42 1015.46 1015.53 1015.68 1015.80 1015.87 1015.88 1015.77 1015.57 1015.41 1015.24 1015.08 1014.98 1014.95 1015.07 1015.07 1015.12 1015.10 1014.92 1014.79 1014.62 1014.48 1014.43 1014.37 1014.32 1014.44 1014.59
1013.96 1013.46 1013.05 1012.77 1012.63 1012.71 1012.85 1013.21 1013.22 1013.45 1013.85 1014.08 1014.20 1014.49 1014.74 1014.90 1014.97 1015.03 1015.18 1015.24 1015.30 1015.33 1015.39 1015.38 1015.37 1015.20 1014.92 1014.74 1014.66 1014.67 1014.67 1014.75 1014.74 1014.77 1014.82 1014.55 1014.20 1014.05 1013.95 1013.93 1013.93 1013.90 1013.91
1014.14 1013.62 1013.12 1012.65 1012.40 1012.29 1012.35 1012.55 1012.93 1013.27 1013.69 1013.93 1013.91 1013.98 1014.20 1014.29 1014.37 1014.56 1014.62 1014.66 1014.78 1014.99 1014.96 1014.82 1014.78 1014.83 1014.61 1014.46 1014.31 1014.27 1014.24 1014.28 1014.18 1014.21 1014.15 1014.12 1013.76 1013.61 1013.60 1013.51 1013.53 1013.41 1013.35
1014.28 1013.67 1013.25 1013.09 1012.84 1012.80 1012.88 1013.03 1013.30 1013.63 1013.86 1013.82 1013.79 1013.62 1013.77 1013.90 1013.91 1014.02 1014.06 1014.21 1014.44 1014.49 1014.49 1014.38 1014.42 1014.60 1014.19 1014.00 1013.98 1013.95 1013.91 1013.85 1013.64 1013.47 1013.37 1013.31 1013.17 1012.86 1012.81 1012.86 1012.88 1012.77 1012.61
1014.99 1014.50 1013.91 1013.51 1013.54 1013.73 1013.63 1013.70 1013.83 1013.93 1013.94 1013.79 1013.49 1013.28 1013.15 1013.35 1013.38 1013.46 1013.62 1013.70 1013.86 1014.00 1014.01 1014.02 1013.99 1013.88 1013.75 1013.40 1013.33 1013.33 1013.47 1013.55 1013.36 1013.10 1012.92 1012.89 1012.75 1012.61 1012.41 1012.34 1012.42 1012.34 1011.94
1016.86 1016.16 1015.30 1015.06 1014.84 1014.20 1013.96 1014.09 1014.23 1014.16 1014.17 1013.88 1013.70 1013.46 1013.13 1012.97 1013.04 1013.30 1013.39 1013.34 1013.45 1013.47 1013.52 1013.43 1013.20 1013.15 1012.96 1012.67 1012.56 1012.50 1012.55 1012.66 1012.56 1012.47 1012.31 1012.10 1011.93 1011.79 1011.70 1011.65 1011.80 1011.76 1011.68
1017.28 1017.14 1016.83 1016.62 1016.47 1016.11 1015.36 1015.14 1014.94 1014.79 1014.14 1013.96 1013.81 1013.74 1013.76 1013.12 1012.63 1012.88 1013.01 1013.04 1013.06 1013.08 1013.06 1012.99 1012.76 1012.43 1012.15 1012.04 1011.94 1011.71 1011.63 1011.59 1011.70 1011.65 1011.50 1011.36 1011.35 1011.26 1011.25 1011.23 1011.01 1010.87 1010.90
1018.36 1017.99 1017.67 1017.21 1016.99 1016.79 1016.55 1015.93 1015.59 1015.26 1014.86 1014.35 1014.08 1013.91 1013.63 1013.36 1013.09 1013.13 1012.80 1012.78 1012.56 1012.47 1012.35 1012.44 1012.14 1011.90 1011.59 1011.42 1011.23 1011.15 1010.95 1010.81 1010.70 1010.68 1010.68 1010.71 1010.72 1010.67 1010.59 1010.65 1010.60 1010.58 1010.55
1018.71 1018.42 1017.92 1017.47 1017.02 1016.59 1016.35 1016.25 1015.85 1015.36 1014.92 1014.51 1014.16 1013.82 1013.41 1012.96 1012.75 1012.72 1012.58 1012.28 1011.99 1011.96 1011.75 1011.75 1011.78 1011.29 1011.09 1011.12 1010.77 1010.58 1010.40 1010.29 1010.34 1010.22 1010.12 1010.11 1010.08 1010.02 1009.96 1009.88 1009.89 1009.98 1010.08
1018.92 1018.59 1018.15 1017.73 1017.17 1016.69 1016.22 1015.63 1015.07 1014.51 1014.27 1013.99 1013.60 1013.26 1012.89 1012.55 1012.38 1012.28 1012.10 1011.95 1011.62 1011.44 1011.35 1011.19 1011.11 1010.99 1010.60 1010.17 1009.88 1009.99 1009.97 1009.82 1009.79 1009.76 1009.80 1009.79 1009.71 1009.56 1009.63 1009.69 1009.55 1009.55 1009.52
1018.60 1018.21 1017.74 1017.32 1016.74 1016.16 1015.69 1015.31 1014.89 1014.39 1013.99 1013.81 1013.33 1012.99 1012.72 1012.28 1012.10 1012.01 1011.55 1011.24 1011.07 1010.73 1010.64 1010.47 1010.26 1009.96 1009.43 1009.13 1009.03 1008.93 1008.81 1008.70 1008.69 1008.75 1009.00 1008.96 1008.88 1008.78 1008.77 1008.86 1008.86 1009.08 1009.05
Wind_Speed
5 7 7 7 6 4 4 4 3 1 2 3 2 2 2 3 2 3 4 4 4 3 2 1 2 3 2 3 3 3 4 3 5 4 4 3 4 4 4 3 2 4 4
7 8 7 7 6 6 5 3 2 1 1 1 1 1 2 3 3 3 5 4 4 4 3 2 1 1 2 4 4 3 3 3 4 2 1 4 5 4 4 4 4 6 5
11 9 9 8 6 6 6 5 4 3 2 2 0 2 2 2 3 4 3 4 5 5 3 3 2 1 1 2 2 2 3 3 3 4 1 2 1 3 3 5 4 5 5
7 7 8 8 8 7 5 5 4 2 1 2 2 2 1 1 2 2 3 5 5 5 4 4 2 1 0 1 2 1 1 2 3 3 4 2 1 0 4 2 3 4 4
10 10 10 9 6 7 7 5 4 3 1 2 2 2 1 2 2 3 5 4 5 4 4 4 3 1 0 1 2 2 3 1 0 1 2 2 2 2 1 4 5 4 2
8 7 7 6 6 5 5 4 4 2 3 3 3 2 2 3 3 3 3 4 3 3 2 3 3 2 2 2 2 2 2 1 1 1 1 1 1 2 2 2 3 3 4
8 8 9 7 7 8 6 5 5 4 5 4 3 3 3 3 4 4 3 4 3 2 4 2 3 2 3 3 3 2 2 2 1 2 2 2 2 1 1 1 2 2 3
7 8 9 8 8 8 7 7 6 5 5 5 4 3 4 3 3 3 2 3 2 3 3 3 3 4 4 3 3 2 3 3 3 4 3 3 3 2 2 2 2 3 2
9 10 9 9 9 8 9 9 8 7 7 7 4 4 4 4 3 4 3 2 3 3 3 3 4 4 3 4 3 3 4 3 3 4 4 3 3 2 2 2 3 3 1
8 7 7 8 7 7 7 8 7 8 7 7 6 5 5 4 3 2 4 4 4 3 5 5 4 4 4 4 3 3 4 4 3 3 4 3 2 3 2 2 2 3 4
8 7 7 7 8 6 7 8 7 7 6 6 5 5 5 4 3 3 4 4 3 3 4 4 5 4 4 4 3 4 5 4 4 3 4 5 4 3 3 2 2 2 3
8 8 8 8 8 8 8 9 8 8 8 8 7 7 5 3 4 5 5 4 4 4 5 4 4 4 4 4 4 5 4 4 4 5 4 6 3 4 3 2 4 3 3
8 7 6 8 8 8 8 8 8 8 8 6 6 6 5 5 6 6 5 4 4 4 4 3 4 4 4 4 4 5 5 4 4 4 4 6 4 5 3 3 4 3 3
9 8 8 9 8 9 8 8 8 8 7 7 7 7 7 7 7 6 6 5 4 4 5 5 5 5 4 4 5 4 4 3 4 4 5 6 5 6 6 5 5 4 3
9 9 11 9 8 7 8 7 7 7 7 7 7 9 7 6 6 6 6 5 5 5 5 5 5 5 4 4 5 4 4 4 5 5 5 5 6 9 9 4 5 4 3
9 9 9 8 8 9 8 7 7 8 7 7 9 7 6 6 7 6 6 6 6 6 6 6 6 6 4 8 9 6 5 5 5 5 5 5 7 8 11 11 10 8 5
9 9 9 8 7 7 7 8 8 6 7 7 7 7 6 7 7 6 6 6 7 5 6 6 6 7 6 10 11 10 4 5 5 5 5 5 4 6 5 8 10 10 10
8 9 7 7 7 4 6 5 4 5 5 6 7 7 6 7 6 6 7 6 5 6 5 6 6 6 7 11 12 11 6 5 7 6 6 6 7 6 6 5 6 6 6
11 7 7 5 5 4 3 1 2 3 5 7 6 7 7 7 6 7 7 6 4 5 6 5 6 5 8 10 12 9 5 6 8 6 6 6 7 11 12 6 7 7 7
13 9 8 4 5 6 5 4 5 5 6 6 7 6 6 7 7 7 6 4 4 5 4 5 6 8 7 12 12 9 4 5 5 6 7 13 10 14 14 6 6 7 9
15 16 12 8 9 7 5 5 4 5 6 6 6 7 5 4 4 4 3 4 5 5 6 6 6 7 8 9 15 15 5 5 6 5 6 4 13 14 14 14 5 8 7
16 15 11 11 12 14 12 9 9 9 7 6 6 6 7 5 3 3 4 5 5 5 6 5 6 5 7 11 13 15 15 12 6 6 6 7 14 16 16 14 14 16 14
7 7 7 8 8 10 10 9 10 10 11 10 7 5 5 5 5 5 5 4 5 4 5 5 5 5 4 5 12 15 16 15 9 4 8 13 14 16 14 15 17 17 6
7 7 7 6 5 4 5 7 10 9 9 9 9 7 5 6 4 4 4 4 4 4 5 4 5 6 4 4 5 5 6 11 7 8 7 7 10 13 13 12 8 4 4
6 5 6 6 7 6 7 8 7 7 7 6 6 6 4 5 7 6 5 5 6 5 6 6 5 6 7 5 10 9 6 5 8 8 4 3 3 4 4 5 6 5 4
8 8 9 8 10 9 9 9 9 8 7 8 7 7 6 6 5 6 7 10 14 15 16 18 12 7 13 17 15 14 16 16 17 6 5 7 8 9 9 8 7 6 8
Wind_Direction
215 185 190 180 166 164 167 176 157 100 47 17 356 353 320 310 322 315 306 299 265 254 223 285 337 9 360 345 327 310 331 318 334 336 337 341 3 33 23 14 41 49 47
179 183 187 186 179 175 179 163 158 119 75 101 280 257 297 299 284 319 329 316 269 235 214 222 300 358 352 2 352 352 332 312 1 349 294 359 335 360 16 31 19 29 19
183 178 188 196 188 182 180 183 196 195 173 158 52 348 337 341 349 343 333 332 320 271 231 225 213 286 70 350 325 330 7 344 317 351 69 6 329 329 351 30 46 42 27
169 171 183 195 194 202 182 188 211 225 161 138 97 93 157 292 270 273 286 305 322 300 252 220 204 215 120 334 294 9 344 62 325 323 1 330 276 4 330 336 348 6 17
173 181 193 194 197 175 188 187 198 193 220 159 150 145 195 228 272 298 324 331 331 331 261 210 203 222 181 268 283 329 351 28 311 296 339 344 340 338 320 304 329 340 330
192 193 199 178 181 178 171 174 196 216 188 182 186 190 232 284 315 316 318 324 314 323 337 218 210 232 238 246 262 290 303 295 286 267 276 248 343 330 347 341 320 288 304
181 188 186 187 186 187 184 185 192 209 205 197 202 211 229 237 255 270 273 304 310 312 314 235 215 234 234 229 224 233 252 261 234 245 261 227 249 215 222 199 278 314 310
223 209 199 197 200 193 188 196 190 214 208 211 223 224 234 233 253 264 273 279 272 278 283 258 228 236 235 237 226 218 235 229 234 252 235 239 244 211 195 199 178 325 315
215 213 208 205 204 195 196 192 196 210 207 210 211 230 234 235 248 282 286 293 296 279 296 274 265 264 258 250 237 233 243 232 243 248 253 247 257 232 218 198 181 169 284
234 232 228 217 216 204 195 193 198 205 211 211 210 220 227 230 237 265 287 292 300 309 314 301 284 280 275 267 253 257 261 245 260 246 251 261 262 268 249 225 214 190 192
247 240 242 239 224 206 197 199 197 207 217 216 220 224 237 248 264 276 283 283 289 289 298 305 306 302 298 292 282 274 271 258 266 270 248 261 252 257 259 244 235 226 186
250 241 237 230 214 209 204 203 203 205 209 207 208 220 226 232 240 246 248 243 266 292 293 296 290 277 265 264 254 258 270 255 267 276 283 279 286 279 271 255 250 233 218
279 257 250 230 219 216 212 210 209 216 213 203 207 223 229 229 238 243 249 258 264 268 275 270 278 285 284 279 262 243 251 249 252 261 261 265 273 274 264 249 245 236 257
252 253 253 233 221 216 214 213 221 214 210 204 207 220 225 224 228 234 238 245 246 256 270 272 270 265 266 262 262 257 248 249 252 259 255 258 251 245 252 248 246 241 240
275 252 247 243 232 222 221 223 228 210 198 206 213 225 223 224 228 234 236 240 244 252 256 262 265 268 262 254 252 244 243 256 272 276 277 267 260 255 245 230 240 227 230
291 280 268 255 233 220 219 219 224 216 188 208 226 228 223 228 226 229 229 229 241 250 253 253 250 260 257 264 269 247 247 263 269 277 282 278 280 276 277 274 255 222 216
305 298 288 257 247 229 216 221 219 198 205 221 237 230 222 230 227 229 226 226 230 230 244 253 256 262 262 267 272 271 253 246 252 261 273 283 262 274 277 284 284 284 272
314 307 291 276 255 231 215 217 203 209 226 245 246 236 221 231 229 225 229 233 224 233 241 247 248 260 274 272 272 270 261 250 249 235 244 251 267 252 259 253 256 250 246
310 284 282 298 315 310 338 2 321 306 281 270 269 252 223 232 229 229 231 232 224 238 238 240 261 254 273 278 275 274 263 259 262 245 243 236 257 267 267 248 250 257 253
331 322 331 347 25 7 5 348 327 325 310 300 280 267 241 234 234 235 233 224 217 244 247 267 252 255 259 275 272 268 235 258 263 269 254 260 255 268 276 263 240 257 263
8 2 1 2 357 350 357 357 354 349 312 312 319 318 304 272 263 272 235 243 242 239 251 250 257 250 247 266 275 276 233 227 246 243 272 258 261 263 264 264 240 246 269
3 10 13 14 11 8 15 10 12 348 345 341 327 324 311 298 307 275 279 261 254 255 262 264 269 251 249 258 266 273 274 259 231 237 241 243 258 266 267 268 259 267 275
358 7 10 10 15 8 359 4 347 338 337 335 319 304 303 313 314 294 277 274 254 246 260 255 264 267 261 249 268 273 278 278 270 225 241 258 263 266 272 277 281 280 268
340 336 342 354 350 353 350 334 326 328 326 320 317 313 298 302 282 268 258 264 267 272 270 264 267 271 256 254 261 274 274 277 274 280 281 260 254 256 264 273 271 243 235
311 307 305 301 293 283 277 277 269 254 255 270 275 270 274 303 313 304 294 297 283 247 277 269 250 270 265 246 255 247 252 243 243 262 256 264 245 255 260 258 254 252 245
286 287 284 276 277 271 272 279 282 284 287 290 288 285 288 282 274 274 284 274 269 275 275 274 270 264 268 282 285 286 281 272 272 265 243 252 264 273 277 275 274 258 251